Duchifat 3
1 44854U 19089C   25058.79698770  .00064215  00000-0  18076-2 0  9997
2 44854  36.9466 277.3007 0006132  46.2178 313.9082 15.35388507287230
TO-108
1 44881U 19093C   25058.77676043  .00003158  00000-0  37407-3 0  9998
2 44881  97.8011 136.5457 0013474 200.5176 159.5499 14.85201407280963
FloripaSat 1
1 44885U 19093G   25058.79224931  .00016469  00000-0  14512-2 0  9999
2 44885  97.8207 146.3136 0011212 180.2010 179.9209 14.96479245281512
RS-44
1 44909U 19096E   25058.60693240  .00000044  00000-0  12879-3 0  9999
2 44909  82.5202 295.0510 0217495 173.7447 186.6452 12.79738659241646
UPMSat 2
1 46276U 20061E   25058.73510703  .00077232  00000-0  11724-2 0  9998
2 46276  97.2596 130.7222 0000733 189.4629 170.6612 15.54330564249570
SALSAT
1 46495U 20068K   25058.42789766  .00016438  00000-0  75869-3 0  9993
2 46495  97.8503  31.9723 0013268 147.2100 212.9960 15.20230393242995
CubeSX-Sirius-HSE
1 47951U 21022V   25058.84257507  .00132829  00000-0  19401-2 0  9993
2 47951  97.4326 326.6102 0004698 326.6502  33.4456 15.55174255217858
CubeSX-HSE
1 47952U 21022W   25058.81845074  .00135152  00000-0  19342-2 0  9999
2 47952  97.4325 326.7739 0004229 317.4390  42.6536 15.55725243217869
KSU-Cubesat
1 47954U 21022Y   25058.64696374  .00499667  00000-0  24576-2 0  9998
2 47954  97.4267 331.0932 0002315 114.5758 245.5751 15.80862084217842
GRBAlpha
1 47959U 21022AD  25058.84597932  .00135938  00000-0  19583-2 0  9995
2 47959  97.4313 326.9568 0004582 324.9273  35.1679 15.55541113216697
Orbicraft-Zorkiy
1 47960U 21022AE  25058.81237280  .00270259  00000-0  23355-2 0  9999
2 47960  97.4301 330.2271 0000948 350.3950   9.7293 15.68374124217568
TUBIN
1 48900U 21059X   25058.80627452  .00067699  00000-0  12356-2 0  9998
2 48900  97.6672 220.6604 0005047 255.9683 104.1006 15.49181185204229
LEDSAT
1 49069U 21073D   25058.66104150  .00079580  00000-0  16134-2 0  9990
2 49069  97.4014 137.0250 0012411  92.7855 267.4815 15.46021433195612
CUTE
1 49263U 21088D   25058.45759413  .00025390  00000-0  59438-3 0  9992
2 49263  97.4629 132.0615 0008562 248.7459 111.2874 15.42072584188662
TeikyoSat 4
1 49396U 21102B   25058.51813862  .00005893  00000-0  39779-3 0  9994
2 49396  97.4259 100.5944 0014118 120.5645 239.6978 15.06892217181173
Z-Sat
1 49399U 21102E   25058.82327788  .00010368  00000-0  58815-3 0  9993
2 49399  97.3956 103.3991 0020228  96.9156 263.4377 15.12969922181582
KOSEN 1
1 49402U 21102H   25058.38909532  .00015838  00000-0  77684-3 0  9994
2 49402  97.3872 105.6733 0018061  78.1939 282.1320 15.18048398181774
HO-113
1 50466U 21131B   25058.80834342  .00001681  00000-0  54134-3 0  9997
2 50466  98.5116 148.6841 0005197  86.0240 274.1542 14.40575298166796
IRIS-A
1 51044U 22002BN  25058.62971933  .00140739  00000-0  16830-2 0  9994
2 51044  97.3421 134.0389 0004180 199.2150 160.8950 15.60515461173813
Foresail-1
1 52766U 22057AL  25058.34392971  .00111203  00000-0  13750-2 0  9996
2 52766  97.5987 200.7022 0006979 286.4141  73.6348 15.59717224153804
SNUGLITE 2
1 52899U 22065F   25058.37942059  .00003978  00000-0  78989-3 0  9998
2 52899  98.1496 201.4764 0008501  77.0064 283.2087 14.62704373141546
IO-117
1 53106U 22080B   25051.21822557 -.00000003  00000-0  00000+0 0  9995
2 53106  70.1434 106.3440 0008542  48.0089 312.1297  6.42557744 61200
FO-118
1 54684U 22167C   25058.85710917  .01397310  11513-2  22989-2 0  9992
2 54684  97.6004 223.9939 0010399 293.2754  66.7430 16.03345771123904
UmKA 1 (RS40S)
1 57172U 23091G   25058.86050078  .00013295  00000-0  74573-3 0  9990
2 57172  97.5738 114.8212 0014087 330.0601  29.9823 15.13410548 92089
CubeBel-2 (EU11S)
1 57175U 23091K   25058.85804437  .00019976  00000-0  10307-2 0  9994
2 57175  97.5736 115.4271 0012252 340.3072  19.7686 15.16305370 92128
VERONIKA
1 58261U 23174F   25058.83790175  .00100374  00000-0  19900-2 0  9995
2 58261  97.4260 140.8236 0006313  53.1225 307.0602 15.46650738 72841
KAFASAT
1 58317U 23174BP  25058.80434529  .00337235  00000-0  27028-2 0  9990
2 58317  97.4130 144.4598 0004239 323.5557  36.5416 15.70013831 73108
ENSO
1 58470U 23185J   25058.81254048  .00070584  00000-0  15787-2 0  9999
2 58470  97.3876 131.5584 0008685  91.2081 269.0162 15.43198596 69272
EIRSAT-1
1 58472U 23185L   25058.86165617  .00093405  00000-0  17925-2 0  9992
2 58472  97.3868 132.3665 0007384  90.6529 269.5568 15.47617003 69334
SONATE-2
1 59112U 24043Q   25058.30886896  .00033496  00000-0  11295-2 0  9994
2 59112  97.4981 187.8925 0012203 117.7104 242.5376 15.30577212 54660
MO-122
1 60209U 24125G   25058.01603893  .00034021  00000-0  11322-2 0  9992
2 60209  97.2929 271.0407 0021549 141.9766 218.3001 15.30842945 36233
GRBBeta
1 60237U 24128C   25058.47872865  .00009840  00000-0  76624-3 0  9991
2 60237  61.9915  75.1903 0042297  34.0711 326.3081 15.01055845 34864
Curium One
1 60242U 24128H   25058.38735101  .00017104  00000-0  12699-2 0  9991
2 60242  61.9819  75.0453 0042557  28.8686 331.4746 15.02467112 34863
ROBUSTA-3A
1 60243U 24128J   25058.49501828  .00016126  00000-0  12120-2 0  9993
2 60243  61.9882  75.1866 0040838  26.7778 333.5408 15.02097677 34876
CatSat
1 60246U 24125J   25058.53698989  .00022034  00000-0  79546-3 0  9994
2 60246  97.2713 271.7801 0046766  96.9880 263.6682 15.27447270 34395
HYPERVIEW-1G (RS66S)
1 61772U 24199AP  25058.83892510  .00040061  00000-0  13906-2 0  9996
2 61772  97.3710 288.2027 0014773 190.8955 169.1968 15.29560986 61378
AO-123
1 61781U 24199AY  25058.83916766  .00018300  00000-0  70858-3 0  9997
2 61781  97.3716 287.9106 0016032 192.8438 167.2394 15.26108638 61355
ZIMSAT 2
1 61783U 24199BA  25058.86270655  .00061078  00000-0  19977-2 0  9996
2 61783  97.3701 288.3180 0015746 190.5206 169.5708 15.31364672 64532
POEM 4 (BGS ARPIT)
1 62461U 24253C   25058.75232145  .00298235  00000-0  10569-2 0  9996
2 62461  55.2192 333.7617 0010323  95.1854 265.0377 15.87688642  9314
HADES-R (SO-124)
1 62690U 25009CK  25058.48993034  .00064129  00000-0  30191-2 0  9997
2 62690  97.4194 140.3501 0002903  98.9937 261.1626 15.19278704  6590
